Hourly Data Report for April 28, 2005

TORONTO CITY
ONTARIO

43°40'00.000" N
79°24'00.000" W
112.50 m
6158355
71508
XTO

Download Data

Hourly Data (April 2005)
Hourly Data Report for April 28, 2005
TIME
LST
Temp Definition
°C
Dew Point Definition
°C
Rel Hum Definition
%
Precip. Amount Definition
mm

Wind Dir Definition
10's deg

Wind Spd Definition
km/h
Visibility Definition
km
Stn Press Definition
kPa
Hmdx Definition


Wind Chill Definition


Weather Definition


00:00 8.5 3.7 72   LegendMM LegendMM   99.59     LegendNANA
01:00 7.8 4.2 78   LegendMM LegendMM   99.60     LegendNANA
02:00 7.6 3.3 74   LegendMM LegendMM   99.62     LegendNANA
03:00 7.3 2.8 73   LegendMM LegendMM   99.65     LegendNANA
04:00 6.7 2.7 76   LegendMM LegendMM   99.67     LegendNANA
05:00 6.2 2.4 77   LegendMM LegendMM   99.66     LegendNANA
06:00 6.1 2.6 78   LegendMM LegendMM   99.65     LegendNANA
07:00 6.9 2.6 74   LegendMM LegendMM   99.65     LegendNANA
08:00 6.2 3.0 80   LegendMM LegendMM   99.66     LegendNANA
09:00 6.8 3.1 77   LegendMM LegendMM   99.65     LegendNANA
10:00 6.6 4.3 85   LegendMM LegendMM   99.67     LegendNANA
11:00 5.2 3.2 87   LegendMM LegendMM   99.74     LegendNANA
12:00 7.1 3.8 80   LegendMM LegendMM   99.77     LegendNANA
13:00 5.4 3.7 89   LegendMM LegendMM   99.85     LegendNANA
14:00 7.7 5.1 84   LegendMM LegendMM   99.85     LegendNANA
15:00 7.1 4.6 84   LegendMM LegendMM   99.88     LegendNANA
16:00 9.4 2.6 62   LegendMM LegendMM   99.90     LegendNANA
17:00 9.3 1.0 56   LegendMM LegendMM   99.95     LegendNANA
18:00 8.8 0.9 58   LegendMM LegendMM   99.99     LegendNANA
19:00 7.9 1.4 63   LegendMM LegendMM   100.01     LegendNANA
20:00 7.1 1.5 68   LegendMM LegendMM   100.07     LegendNANA
21:00 6.4 1.5 71   LegendMM LegendMM   100.10     LegendNANA
22:00 6.5 1.7 71   LegendMM LegendMM   100.10     LegendNANA
23:00 5.8 1.1 72   LegendMM LegendMM   100.10     LegendNANA

Notes on Data Quality.

Legend

  • E = Estimated
  • M = Missing
  • NA = Not Available*
  • [empty] = Indicates an unobserved value
Date modified: